| time (UTC) | temp C | wind direction | speed KPH | gust KPH | rain 1hr cm | rain 24hr cm | rain mn cm | humidity % | barometer mb |
| 20260503005915 | 7 | 128 | 0.0 | 0.0 | 0.00 | 0.00 | 0.00 | 68 | 1013.0 |
| 20260503005412 | 8 | 123 | 0.0 | 0.0 | 0.00 | 0.00 | 0.00 | 66 | 1012.9 |
| 20260503004909 | 8 | 158 | 1.6 | 3.2 | 0.00 | 0.00 | 0.00 | 62 | 1012.8 |
| 20260503004406 | 8 | 138 | 1.6 | 1.6 | 0.00 | 0.00 | 0.00 | 61 | 1012.8 |
| 20260503003903 | 8 | 137 | 3.2 | 3.2 | 0.00 | 0.00 | 0.00 | 63 | 1012.7 |
| 20260503003400 | 8 | 121 | 1.6 | 1.6 | 0.00 | 0.00 | 0.00 | 63 | 1012.5 |
| 20260503002857 | 9 | 129 | 1.6 | 1.6 | 0.00 | 0.00 | 0.00 | 60 | 1012.4 |
| 20260503002355 | 9 | 128 | 3.2 | 4.8 | 0.00 | 0.00 | 0.00 | 58 | 1012.6 |
| 20260503001850 | 9 | 144 | 1.6 | 1.6 | 0.00 | 0.00 | 0.00 | 60 | 1012.3 |
| 20260503001347 | 10 | 126 | 0.0 | 0.0 | 0.00 | 0.00 | 0.00 | 55 | 1012.2 |
| 20260503000845 | 10 | 97 | 3.2 | 4.8 | 0.00 | 0.00 | 0.00 | 53 | 1012.4 |
| 20260503000342 | 10 | 114 | 1.6 | 1.6 | 0.00 | 0.00 | 0.00 | 55 | 1012.3 |
| 20260502235838 | 10 | 103 | 0.0 | 1.6 | 0.00 | 0.00 | 0.00 | 51 | 1012.2 |
| 20260502235336 | 11 | 313 | 6.4 | 9.7 | 0.00 | 0.00 | 0.00 | 49 | 1012.1 |
| 20260502234833 | 11 | 130 | 0.0 | 0.0 | 0.00 | 0.00 | 0.00 | 50 | 1012.2 |
| 20260502234329 | 11 | 97 | 1.6 | 3.2 | 0.00 | 0.00 | 0.00 | 50 | 1012.2 |
| 20260502233826 | 11 | 99 | 1.6 | 1.6 | 0.00 | 0.00 | 0.00 | 49 | 1012.1 |
| 20260502233322 | 11 | 158 | 3.2 | 3.2 | 0.00 | 0.00 | 0.00 | 48 | 1011.9 |
| 20260502232820 | 11 | 64 | 3.2 | 3.2 | 0.00 | 0.00 | 0.00 | 48 | 1012.2 |
| 20260502232316 | 11 | 131 | 1.6 | 1.6 | 0.00 | 0.00 | 0.00 | 48 | 1012.0 |
| 20260502231812 | 11 | 109 | 0.0 | 0.0 | 0.00 | 0.00 | 0.00 | 48 | 1011.9 |
| 20260502231310 | 11 | 102 | 3.2 | 3.2 | 0.00 | 0.00 | 0.00 | 47 | 1011.8 |
| 20260502230808 | 11 | 310 | 6.4 | 8.0 | 0.00 | 0.00 | 0.00 | 47 | 1012.1 |
| 20260502230306 | 11 | 120 | 1.6 | 3.2 | 0.00 | 0.00 | 0.00 | 47 | 1011.8 |
| 20260502225803 | 11 | 265 | 4.8 | 4.8 | 0.00 | 0.00 | 0.00 | 47 | 1011.9 |
| 20260502225259 | 11 | 100 | 4.8 | 4.8 | 0.00 | 0.00 | 0.00 | 46 | 1011.7 |
| 20260502224755 | 11 | 125 | 0.0 | 0.0 | 0.00 | 0.00 | 0.00 | 46 | 1011.8 |
| 20260502224252 | 11 | 126 | 4.8 | 8.0 | 0.00 | 0.00 | 0.00 | 46 | 1011.8 |
| 20260502223750 | 12 | 49 | 6.4 | 8.0 | 0.00 | 0.00 | 0.00 | 47 | 1011.5 |
| 20260502223248 | 12 | 115 | 0.0 | 0.0 | 0.00 | 0.00 | 0.00 | 48 | 1011.6 |
| 20260502222745 | 12 | 116 | 0.0 | 1.6 | 0.00 | 0.00 | 0.00 | 46 | 1011.7 |
| 20260502222242 | 12 | 144 | 3.2 | 3.2 | 0.00 | 0.00 | 0.00 | 46 | 1011.7 |
| 20260502221738 | 12 | 145 | 1.6 | 1.6 | 0.00 | 0.00 | 0.00 | 47 | 1011.6 |
| 20260502221235 | 12 | 137 | 1.6 | 3.2 | 0.00 | 0.00 | 0.00 | 47 | 1011.7 |
| 20260502220731 | 12 | 113 | 4.8 | 8.0 | 0.00 | 0.00 | 0.00 | 46 | 1011.6 |
| 20260502220227 | 12 | 133 | 3.2 | 3.2 | 0.00 | 0.00 | 0.00 | 47 | 1011.6 |
| 20260502215724 | 12 | 176 | 1.6 | 3.2 | 0.00 | 0.00 | 0.00 | 45 | 1011.6 |
| 20260502215221 | 12 | 97 | 3.2 | 4.8 | 0.00 | 0.00 | 0.00 | 44 | 1011.5 |
| 20260502214719 | 12 | 134 | 4.8 | 8.0 | 0.00 | 0.00 | 0.00 | 46 | 1011.4 |
| 20260502214215 | 12 | 6 | 6.4 | 8.0 | 0.00 | 0.00 | 0.00 | 45 | 1011.4 |
| 20260502213713 | 12 | 121 | 1.6 | 3.2 | 0.00 | 0.00 | 0.00 | 46 | 1011.4 |
| 20260502213210 | 12 | 15 | 3.2 | 4.8 | 0.00 | 0.00 | 0.00 | 46 | 1011.4 |
| 20260502212708 | 12 | 341 | 4.8 | 8.0 | 0.00 | 0.00 | 0.00 | 46 | 1011.7 |
| 20260502212206 | 12 | 113 | 3.2 | 4.8 | 0.00 | 0.00 | 0.00 | 48 | 1011.3 |
| 20260502211702 | 12 | 336 | 9.7 | 16.1 | 0.00 | 0.00 | 0.00 | 46 | 1011.3 |
| 20260502211159 | 13 | 119 | 1.6 | 3.2 | 0.00 | 0.00 | 0.00 | 44 | 1011.2 |
| 20260502210656 | 13 | 137 | 1.6 | 3.2 | 0.00 | 0.00 | 0.00 | 42 | 1011.4 |
| 20260502210153 | 12 | 75 | 8.0 | 9.7 | 0.00 | 0.00 | 0.00 | 45 | 1011.4 |
| 20260502205650 | 12 | 100 | 3.2 | 3.2 | 0.00 | 0.00 | 0.00 | 46 | 1011.4 |
| 20260502205147 | 12 | 114 | 1.6 | 3.2 | 0.00 | 0.00 | 0.00 | 47 | 1011.4 |
| 20260502204644 | 12 | 133 | 0.0 | 0.0 | 0.00 | 0.00 | 0.00 | 45 | 1011.5 |
| 20260502204142 | 12 | 354 | 3.2 | 4.8 | 0.00 | 0.00 | 0.00 | 46 | 1011.4 |
| 20260502203638 | 12 | 123 | 0.0 | 1.6 | 0.00 | 0.00 | 0.00 | 44 | 1011.3 |
| 20260502203137 | 13 | 103 | 4.8 | 4.8 | 0.00 | 0.00 | 0.00 | 41 | 1011.5 |
| 20260502202631 | 13 | 107 | 0.0 | 0.0 | 0.00 | 0.00 | 0.00 | 45 | 1011.6 |
| 20260502202130 | 12 | 250 | 4.8 | 4.8 | 0.00 | 0.00 | 0.00 | 44 | 1011.6 |
| 20260502201626 | 12 | 337 | 8.0 | 11.3 | 0.00 | 0.00 | 0.00 | 45 | 1011.6 |
| 20260502201122 | 12 | 54 | 6.4 | 9.7 | 0.00 | 0.00 | 0.00 | 45 | 1011.6 |
| 20260502200618 | 12 | 136 | 1.6 | 1.6 | 0.00 | 0.00 | 0.00 | 45 | 1011.8 |
| 20260502200116 | 12 | 110 | 4.8 | 8.0 | 0.00 | 0.00 | 0.00 | 47 | 1011.7 |
| 20260502195614 | 12 | 172 | 1.6 | 3.2 | 0.00 | 0.00 | 0.00 | 47 | 1011.6 |
| 20260502195109 | 12 | 133 | 0.0 | 0.0 | 0.00 | 0.00 | 0.00 | 47 | 1011.9 |
| 20260502194606 | 12 | 96 | 1.6 | 3.2 | 0.00 | 0.00 | 0.00 | 47 | 1011.8 |
| 20260502194102 | 12 | 232 | 4.8 | 9.7 | 0.00 | 0.00 | 0.00 | 47 | 1011.6 |
| 20260502193600 | 12 | 150 | 4.8 | 8.0 | 0.00 | 0.00 | 0.00 | 45 | 1012.0 |
| 20260502193056 | 12 | 342 | 6.4 | 9.7 | 0.00 | 0.00 | 0.00 | 46 | 1011.9 |
| 20260502192552 | 13 | 148 | 1.6 | 1.6 | 0.00 | 0.00 | 0.00 | 46 | 1011.6 |
| 20260502192050 | 12 | 99 | 1.6 | 3.2 | 0.00 | 0.00 | 0.00 | 50 | 1011.9 |
| 20260502191546 | 11 | 337 | 8.0 | 9.7 | 0.00 | 0.00 | 0.00 | 48 | 1012.0 |
| 20260502191044 | 11 | 55 | 4.8 | 4.8 | 0.00 | 0.00 | 0.00 | 47 | 1011.9 |
| 20260502190541 | 11 | 342 | 9.7 | 12.9 | 0.00 | 0.00 | 0.00 | 46 | 1012.1 |
| 20260502190038 | 12 | 190 | 4.8 | 4.8 | 0.00 | 0.00 | 0.00 | 47 | 1012.2 |
| 20260502185533 | 13 | 301 | 9.7 | 11.3 | 0.00 | 0.00 | 0.00 | 45 | 1012.1 |
| 20260502185030 | 13 | 275 | 9.7 | 11.3 | 0.00 | 0.00 | 0.00 | 43 | 1012.1 |
| 20260502184526 | 12 | 89 | 4.8 | 8.0 | 0.00 | 0.00 | 0.00 | 47 | 1012.0 |
| 20260502184022 | 12 | 148 | 4.8 | 4.8 | 0.00 | 0.00 | 0.00 | 45 | 1012.2 |
| 20260502183518 | 12 | 34 | 4.8 | 8.0 | 0.00 | 0.00 | 0.00 | 46 | 1012.2 |
| 20260502183015 | 12 | 358 | 6.4 | 9.7 | 0.00 | 0.00 | 0.00 | 47 | 1012.3 |
| 20260502182509 | 12 | 131 | 0.0 | 1.6 | 0.00 | 0.00 | 0.00 | 47 | 1012.5 |
| 20260502182006 | 12 | 239 | 6.4 | 9.7 | 0.00 | 0.00 | 0.00 | 46 | 1012.1 |
| 20260502181504 | 12 | 48 | 4.8 | 8.0 | 0.00 | 0.00 | 0.00 | 48 | 1012.3 |
| 20260502181002 | 11 | 18 | 6.4 | 9.7 | 0.00 | 0.00 | 0.00 | 48 | 1012.3 |
| 20260502180458 | 12 | 273 | 6.4 | 8.0 | 0.00 | 0.00 | 0.00 | 47 | 1012.2 |
| 20260502170413 | 12 | 117 | 8.0 | 9.7 | 0.00 | 0.00 | 0.00 | 47 | 1012.6 |
| 20260502163855 | 12 | 192 | 6.4 | 9.7 | 0.00 | 0.00 | 0.00 | 47 | 1013.0 |
| 20260502163352 | 12 | 121 | 4.8 | 4.8 | 0.00 | 0.00 | 0.00 | 50 | 1012.9 |
| 20260502162849 | 12 | 114 | 3.2 | 3.2 | 0.00 | 0.00 | 0.00 | 48 | 1013.0 |
| 20260502162346 | 13 | 273 | 9.7 | 14.5 | 0.00 | 0.00 | 0.00 | 47 | 1012.8 |
| 20260502161843 | 12 | 2 | 1.6 | 8.0 | 0.00 | 0.00 | 0.00 | 51 | 1013.0 |
| 20260502161339 | 12 | 183 | 4.8 | 4.8 | 0.00 | 0.00 | 0.00 | 49 | 1012.9 |
| 20260502160837 | 13 | 108 | 3.2 | 3.2 | 0.00 | 0.00 | 0.00 | 47 | 1013.3 |
| 20260502160336 | 13 | 325 | 6.4 | 8.0 | 0.00 | 0.00 | 0.00 | 49 | 1013.1 |
| 20260502152311 | 12 | 104 | 1.6 | 4.8 | 0.00 | 0.00 | 0.00 | 51 | 1013.3 |
| 20260502151808 | 12 | 24 | 3.2 | 4.8 | 0.00 | 0.00 | 0.00 | 51 | 1013.4 |
| 20260502151305 | 12 | 32 | 8.0 | 11.3 | 0.00 | 0.00 | 0.00 | 54 | 1013.3 |
| 20260502150803 | 12 | 119 | 1.6 | 1.6 | 0.00 | 0.00 | 0.00 | 53 | 1013.4 |
| 20260502150259 | 12 | 130 | 0.0 | 0.0 | 0.00 | 0.00 | 0.00 | 54 | 1013.4 |
| 20260502130647 | 6 | 121 | 0.0 | 0.0 | 0.00 | 0.00 | 0.00 | 97 | 1013.5 |
| 20260502130145 | 6 | 124 | 0.0 | 0.0 | 0.00 | 0.00 | 0.00 | 99 | 1013.5 |
| 20260502123631 | 3 | 121 | 0.0 | 0.0 | 0.00 | 0.00 | 0.00 | 99 | 1013.3 |
| 20260502123127 | 3 | 119 | 0.0 | 0.0 | 0.00 | 0.00 | 0.00 | 99 | 1013.3 |
| 20260502122624 | 3 | 122 | 0.0 | 0.0 | 0.00 | 0.00 | 0.00 | 99 | 1013.0 |
| 20260502122121 | 3 | 118 | 0.0 | 0.0 | 0.00 | 0.00 | 0.00 | 99 | 1013.4 |
| 20260502121619 | 3 | 127 | 0.0 | 0.0 | 0.00 | 0.00 | 0.00 | 99 | 1013.3 |
| 20260502121116 | 3 | 124 | 0.0 | 0.0 | 0.00 | 0.00 | 0.00 | 99 | 1013.4 |
| 20260502120612 | 2 | 114 | 0.0 | 0.0 | 0.00 | 0.00 | 0.00 | 99 | 1013.5 |
| 20260502120109 | 2 | 122 | 1.6 | 1.6 | 0.00 | 0.00 | 0.00 | 99 | 1013.4 |
| 20260502115607 | 2 | 120 | 0.0 | 0.0 | 0.00 | 0.00 | 0.00 | 99 | 1013.1 |
| 20260502115102 | 2 | 126 | 0.0 | 0.0 | 0.00 | 0.00 | 0.00 | 99 | 1013.1 |
| 20260502114559 | 1 | 127 | 0.0 | 0.0 | 0.00 | 0.00 | 0.00 | 99 | 1013.3 |
| 20260502114056 | 1 | 126 | 0.0 | 0.0 | 0.00 | 0.00 | 0.00 | 99 | 1013.3 |
| 20260502113554 | 1 | 133 | 0.0 | 0.0 | 0.00 | 0.00 | 0.00 | 99 | 1013.1 |
| 20260502113052 | 1 | 133 | 0.0 | 0.0 | 0.00 | 0.00 | 0.00 | 99 | 1013.1 |
| 20260502112549 | 1 | 133 | 0.0 | 0.0 | 0.00 | 0.00 | 0.00 | 99 | 1013.3 |
| 20260502112047 | 1 | 133 | 0.0 | 0.0 | 0.00 | 0.00 | 0.00 | 99 | 1013.1 |
| 20260502111544 | 1 | 134 | 0.0 | 0.0 | 0.00 | 0.00 | 0.00 | 99 | 1013.0 |
| 20260502111041 | 1 | 132 | 0.0 | 0.0 | 0.00 | 0.00 | 0.00 | 99 | 1013.1 |
| 20260502110539 | 1 | 132 | 0.0 | 0.0 | 0.00 | 0.00 | 0.00 | 99 | 1012.9 |
| 20260502110036 | 0 | 132 | 0.0 | 0.0 | 0.00 | 0.00 | 0.00 | 99 | 1012.9 |
| 20260502105533 | 0 | 132 | 0.0 | 0.0 | 0.00 | 0.00 | 0.00 | 99 | 1012.9 |
| 20260502105031 | 0 | 132 | 0.0 | 0.0 | 0.00 | 0.00 | 0.00 | 99 | 1012.8 |
| 20260502104528 | 0 | 132 | 0.0 | 0.0 | 0.00 | 0.00 | 0.00 | 99 | 1012.9 |
| 20260502104025 | 0 | 132 | 0.0 | 0.0 | 0.00 | 0.00 | 0.00 | 99 | 1013.0 |
| 20260502103523 | 0 | 132 | 0.0 | 0.0 | 0.00 | 0.00 | 0.00 | 99 | 1012.7 |
| 20260502103021 | 0 | 132 | 0.0 | 0.0 | 0.00 | 0.00 | 0.00 | 99 | 1012.7 |
| 20260502102517 | 0 | 132 | 0.0 | 0.0 | 0.00 | 0.00 | 0.00 | 99 | 1012.6 |
| 20260502102014 | 0 | 132 | 0.0 | 0.0 | 0.00 | 0.00 | 0.00 | 99 | 1013.0 |
| 20260502101512 | 0 | 132 | 0.0 | 0.0 | 0.00 | 0.00 | 0.00 | 99 | 1013.2 |
| 20260502101010 | 0 | 132 | 0.0 | 0.0 | 0.00 | 0.00 | 0.00 | 99 | 1012.9 |
| 20260502100508 | 0 | 132 | 0.0 | 0.0 | 0.00 | 0.00 | 0.00 | 99 | 1013.2 |
| 20260502091443 | 1 | 132 | 0.0 | 0.0 | 0.00 | 0.00 | 0.00 | 99 | 1012.9 |
| 20260502090940 | 1 | 131 | 0.0 | 0.0 | 0.00 | 0.00 | 0.00 | 99 | 1012.9 |
| 20260502090437 | 1 | 135 | 0.0 | 0.0 | 0.00 | 0.00 | 0.00 | 99 | 1013.2 |
| 20260502071331 | 1 | 131 | 0.0 | 0.0 | 0.00 | 0.00 | 0.00 | 98 | 1012.8 |
| 20260502070830 | 1 | 132 | 0.0 | 0.0 | 0.00 | 0.00 | 0.00 | 97 | 1012.8 |
| 20260502070327 | 1 | 132 | 0.0 | 0.0 | 0.00 | 0.00 | 0.00 | 97 | 1012.9 |
| 20260502065826 | 1 | 132 | 0.0 | 0.0 | 0.00 | 0.00 | 0.00 | 98 | 1012.8 |
| 20260502065323 | 1 | 132 | 0.0 | 0.0 | 0.00 | 0.00 | 0.00 | 97 | 1013.0 |
| 20260502064821 | 1 | 132 | 0.0 | 0.0 | 0.00 | 0.00 | 0.00 | 97 | 1013.0 |
| 20260502064319 | 1 | 132 | 0.0 | 0.0 | 0.00 | 0.00 | 0.00 | 97 | 1013.0 |
| 20260502063816 | 1 | 132 | 0.0 | 0.0 | 0.00 | 0.00 | 0.00 | 97 | 1012.9 |
| 20260502063314 | 1 | 132 | 0.0 | 0.0 | 0.00 | 0.00 | 0.00 | 97 | 1012.9 |
| 20260502062811 | 1 | 132 | 0.0 | 0.0 | 0.00 | 0.00 | 0.00 | 97 | 1012.8 |
| 20260502062308 | 2 | 132 | 0.0 | 0.0 | 0.00 | 0.00 | 0.00 | 98 | 1013.0 |
| 20260502061807 | 2 | 133 | 0.0 | 0.0 | 0.00 | 0.00 | 0.00 | 98 | 1013.0 |
| 20260502061304 | 2 | 130 | 0.0 | 0.0 | 0.00 | 0.00 | 0.00 | 98 | 1013.1 |
| 20260502060759 | 2 | 128 | 0.0 | 0.0 | 0.00 | 0.00 | 0.00 | 98 | 1013.3 |
| 20260502060255 | 2 | 128 | 0.0 | 0.0 | 0.00 | 0.00 | 0.00 | 98 | 1013.3 |
| 20260502055753 | 2 | 133 | 0.0 | 0.0 | 0.00 | 0.00 | 0.00 | 98 | 1013.4 |
| 20260502055250 | 2 | 132 | 0.0 | 0.0 | 0.00 | 0.00 | 0.00 | 97 | 1013.1 |
| 20260502054750 | 2 | 133 | 0.0 | 0.0 | 0.00 | 0.00 | 0.00 | 97 | 1013.3 |
| 20260502054247 | 2 | 133 | 0.0 | 0.0 | 0.00 | 0.00 | 0.00 | 97 | 1013.1 |
| 20260502053744 | 2 | 133 | 0.0 | 0.0 | 0.00 | 0.00 | 0.00 | 98 | 1013.2 |
| 20260502053241 | 2 | 133 | 0.0 | 0.0 | 0.00 | 0.00 | 0.00 | 98 | 1013.4 |
| 20260502052739 | 2 | 133 | 0.0 | 0.0 | 0.00 | 0.00 | 0.00 | 98 | 1013.3 |
| 20260502052237 | 2 | 132 | 0.0 | 0.0 | 0.00 | 0.00 | 0.00 | 98 | 1013.3 |
| 20260502051735 | 2 | 133 | 0.0 | 0.0 | 0.00 | 0.00 | 0.00 | 98 | 1013.6 |
| 20260502051233 | 2 | 129 | 0.0 | 0.0 | 0.00 | 0.00 | 0.00 | 98 | 1013.6 |
| 20260502050729 | 2 | 137 | 0.0 | 0.0 | 0.00 | 0.00 | 0.00 | 97 | 1013.4 |
| 20260502050225 | 3 | 132 | 0.0 | 0.0 | 0.00 | 0.00 | 0.00 | 97 | 1013.4 |
| 20260502045723 | 3 | 133 | 0.0 | 0.0 | 0.00 | 0.00 | 0.00 | 96 | 1013.3 |
| 20260502045219 | 3 | 133 | 0.0 | 0.0 | 0.00 | 0.00 | 0.00 | 96 | 1013.5 |
| 20260502044716 | 3 | 133 | 0.0 | 0.0 | 0.00 | 0.00 | 0.00 | 96 | 1013.4 |
| 20260502044212 | 3 | 133 | 0.0 | 0.0 | 0.00 | 0.00 | 0.00 | 96 | 1013.4 |
| 20260502043710 | 3 | 131 | 0.0 | 0.0 | 0.00 | 0.00 | 0.00 | 95 | 1013.5 |
| 20260502043208 | 3 | 130 | 0.0 | 0.0 | 0.00 | 0.00 | 0.00 | 93 | 1013.5 |
| 20260502042707 | 3 | 130 | 0.0 | 0.0 | 0.00 | 0.00 | 0.00 | 92 | 1013.5 |
| 20260502042204 | 3 | 130 | 0.0 | 0.0 | 0.00 | 0.00 | 0.00 | 93 | 1013.6 |
| 20260502041702 | 3 | 130 | 0.0 | 0.0 | 0.00 | 0.00 | 0.00 | 93 | 1013.6 |
| 20260502041159 | 3 | 130 | 0.0 | 0.0 | 0.00 | 0.00 | 0.00 | 91 | 1013.5 |
| 20260502040655 | 3 | 130 | 0.0 | 0.0 | 0.00 | 0.00 | 0.00 | 91 | 1013.6 |
| 20260502040153 | 4 | 130 | 0.0 | 0.0 | 0.00 | 0.00 | 0.00 | 93 | 1013.5 |
| 20260502035649 | 4 | 130 | 0.0 | 0.0 | 0.00 | 0.00 | 0.00 | 93 | 1013.4 |
| 20260502035146 | 4 | 131 | 0.0 | 0.0 | 0.00 | 0.00 | 0.00 | 93 | 1013.6 |
| 20260502034643 | 5 | 134 | 0.0 | 0.0 | 0.00 | 0.00 | 0.00 | 93 | 1013.4 |
| 20260502034142 | 5 | 132 | 0.0 | 0.0 | 0.00 | 0.00 | 0.00 | 92 | 1013.4 |
| 20260502033639 | 5 | 133 | 0.0 | 0.0 | 0.00 | 0.00 | 0.00 | 92 | 1013.5 |
| 20260502033137 | 5 | 133 | 0.0 | 0.0 | 0.00 | 0.00 | 0.00 | 92 | 1013.2 |
| 20260502032632 | 5 | 125 | 0.0 | 0.0 | 0.00 | 0.00 | 0.00 | 91 | 1013.3 |
| 20260502032129 | 5 | 131 | 0.0 | 0.0 | 0.00 | 0.00 | 0.00 | 91 | 1013.4 |
| 20260502031627 | 5 | 129 | 0.0 | 0.0 | 0.00 | 0.00 | 0.00 | 89 | 1013.1 |
| 20260502031125 | 6 | 129 | 0.0 | 0.0 | 0.00 | 0.00 | 0.00 | 88 | 1013.2 |
| 20260502030624 | 6 | 129 | 0.0 | 0.0 | 0.00 | 0.00 | 0.00 | 87 | 1013.4 |
| 20260502030121 | 6 | 129 | 0.0 | 0.0 | 0.00 | 0.00 | 0.00 | 86 | 1013.4 |
| 20260502025618 | 6 | 133 | 0.0 | 0.0 | 0.00 | 0.00 | 0.00 | 85 | 1013.4 |
| 20260502025116 | 6 | 133 | 0.0 | 0.0 | 0.00 | 0.00 | 0.00 | 84 | 1013.5 |
| 20260502024614 | 7 | 133 | 0.0 | 0.0 | 0.00 | 0.00 | 0.00 | 84 | 1013.4 |
| 20260502024111 | 7 | 133 | 0.0 | 0.0 | 0.00 | 0.00 | 0.00 | 82 | 1013.3 |
| 20260502023609 | 7 | 133 | 0.0 | 0.0 | 0.00 | 0.00 | 0.00 | 82 | 1013.5 |
| 20260502023106 | 7 | 133 | 0.0 | 0.0 | 0.00 | 0.00 | 0.00 | 82 | 1013.4 |
| 20260502022603 | 7 | 133 | 0.0 | 0.0 | 0.00 | 0.00 | 0.00 | 81 | 1013.5 |
| 20260502022100 | 7 | 134 | 0.0 | 0.0 | 0.00 | 0.00 | 0.00 | 83 | 1013.6 |
| 20260502021557 | 7 | 133 | 0.0 | 0.0 | 0.00 | 0.00 | 0.00 | 82 | 1013.4 |
| 20260502021054 | 7 | 132 | 0.0 | 0.0 | 0.00 | 0.00 | 0.00 | 81 | 1013.2 |
| 20260502020552 | 7 | 133 | 0.0 | 0.0 | 0.00 | 0.00 | 0.00 | 80 | 1013.0 |
| 20260502020048 | 7 | 133 | 0.0 | 0.0 | 0.00 | 0.00 | 0.00 | 78 | 1012.9 |
| 20260502015546 | 7 | 133 | 0.0 | 0.0 | 0.00 | 0.00 | 0.00 | 77 | 1012.9 |
| 20260502015042 | 7 | 133 | 0.0 | 0.0 | 0.00 | 0.00 | 0.00 | 77 | 1012.7 |
| 20260502014540 | 7 | 133 | 0.0 | 0.0 | 0.00 | 0.00 | 0.00 | 76 | 1012.7 |
| 20260502014037 | 7 | 133 | 0.0 | 0.0 | 0.00 | 0.00 | 0.00 | 77 | 1012.8 |
| 20260502013532 | 8 | 133 | 0.0 | 0.0 | 0.00 | 0.00 | 0.00 | 78 | 1012.6 |
| 20260502013029 | 8 | 133 | 0.0 | 0.0 | 0.00 | 0.00 | 0.00 | 76 | 1012.4 |
| 20260502012526 | 8 | 102 | 0.0 | 0.0 | 0.00 | 0.00 | 0.00 | 75 | 1012.2 |
| 20260502012024 | 8 | 125 | 1.6 | 1.6 | 0.00 | 0.00 | 0.00 | 75 | 1012.4 |
| 20260502011520 | 8 | 171 | 3.2 | 3.2 | 0.00 | 0.00 | 0.00 | 76 | 1012.4 |
| 20260502011016 | 9 | 141 | 1.6 | 1.6 | 0.00 | 0.00 | 0.00 | 73 | 1012.2 |
| 20260502010514 | 9 | 195 | 4.8 | 4.8 | 0.00 | 0.00 | 0.00 | 72 | 1012.4 |